Location: *
(46.4833°N, 7.6667°E)
Time: 06:00:03
(UTC+00:00)

Cosmos 2297 Rocket - Pass Details

Date: 27 February 2020
Orbit: 838 x 845 km, 71.0° (Epoch: 28 March)

Event Time Altitude Azimuth Distance (km) Brightness Sun altitude
Rises 19:38:39 0° 333° (NNW) 3,415 6.0 -25.9°
Reaches altitude 10° 19:41:06 10° 334° (NNW) 2,476 5.1 -26.3°
Maximum altitude 19:46:48 88° 65° (ENE) 852 2.1 -27.2°
Enters shadow 19:46:59 84° 133° (SE) 855 2.0 -27.3°
